Zurück zum Katalog

STARLINK-36079

AktivKommunikationVLEO
NORAD 66897·PAYLOAD·🇺🇸 United States

Gestartet Dec 4, 2025 von Vandenberg Space Force Base

Loading…

Nächste Überflüge (nächste 24 Stunden)

TLE

AktuellSource: CelesTrak SupGP

Epoche: Sep 15, 2026, 03:34 UTC

1 66897C 25283V   26258.14909722 -.00073036  00000+0 -21578-2 0  2586
2 66897  53.1573 220.9018 0001178  89.8065  32.1202 15.34428108    14

Verfolge STARLINK-36079 in Echtzeit mit AllMySat

Download on the App Store